User: anonymous   Login
Location: Unspecified
(0.0000°N, 0.0000°E)
Time: 01:05:54
(UTC+00:00)
Language:

DMSP 5D-3 F18 (USA 210) - Orbit

View from above orbital plane
View from above orbital plane
View from above satellite
View from above satellite

Ground track
Ground track

The orbit data is extracted from the following two-line orbital elements,

1 35951U 09057A   19287.58957150  .00000007  00000-0  26312-4 0  9996
2 35951  98.6276 281.0514 0011099 359.4812   0.6347 14.13224647515135
Epoch (UTC): 14 October 2019 14:08:58
Eccentricity: 0.0011099
inclination: 98.6276°
perigee height: 840 km
apogee height: 856 km
right ascension of ascending node: 281.0514°
argument of perigee: 359.4812°
revolutions per day: 14.13224647
mean anomaly at epoch: 0.6347°
orbit number at epoch: 51513

The dashed part of the orbit path shows where the satellite is in the earth's shadow,  

DLR